x

Buoy F01 - West Penobscot Bay (44033) Wave Buoy

1:04 - Fri 29th Apr 2016 All times are EDT. -4 hours from GMT.

  • Sig Wave height 1.6ft
  • Peak Period 3s
  • Wind
    16mph, 18mph gusts
  • Sea Temp 43°f
  • Aire Temp 40°f
  • Sea Pressure 1020.6mb
  • Buoy F01 - West Penobscot Bay
  • Buoy F01 - West Penobscot Bay

More Historic Weather Station data

Upgrade to MSW Pro to gain access to the past 30 days of data for over 8000 Wavebouys and Weather Stations around the globe.

Join Pro

Comparision Forecast

View Surf forecast
   
vie 04/29 1:04 1.6ft 3s 16 18 mph 1020.6mb 43f 40f
12:04 1.3ft 8s 13 18 mph 1020.3mb 43f 42f
jue 04/28 11:04 1.6ft 8s 7
mph
1020.4mb 43f 42f
10:04 1.6ft 8s 4
mph
1020.1mb 43f 42f
9:04 1ft 2s 9 11 mph 1019.2mb 43f 43f
8:04 1ft 4s 13 16 mph 1018.2mb 44f 43f
7:04 1ft 3s 11
mph
1017.3mb 44f 43f
6:04 1ft 3s 11 13 mph 1016.5mb 44f 42f
5:04 1.6ft 8s 13 16 mph 1016mb 44f 41f
4:04 1.3ft 3s 16 18 mph 1015.8mb 44f 41f
3:04  -   -  13 18 mph 1015.6mb - 41f
2:04 1.3ft 8s 9 11 mph 1015.9mb 44f 42f
1:04 1.6ft 8s 9 11 mph 1015.8mb 44f 42f
12:04 1.6ft 8s 7 11 mph 1016mb 44f 40f
11:04 1.6ft 8s 11 13 mph 1016.2mb 44f 40f
10:04 1.3ft 11s 4 9 mph 1016.2mb 43f 38f
9:04 1ft 8s 7 11 mph 1015.7mb 43f 37f
8:04 1.3ft 11s 7 9 mph 1015.3mb 43f 37f
7:04 1.6ft 11s 7 9 mph 1014.9mb 43f 36f
6:04 1.3ft 8s 9 11 mph 1014.1mb 43f 36f
5:04 1.3ft 3s 11 13 mph 1013mb 43f 36f
4:04 2.5ft 8s 11 13 mph 1012.4mb 43f 37f
3:04 1.6ft 3s 16 20 mph 1011.6mb 43f 38f
2:04 2.5ft 8s 13 16 mph 1011mb 43f 40f
1:04 1.6ft 3s 18 20 mph 1011.3mb 43f 41f
12:04 1.6ft 3s 16 20 mph 1011.2mb 43f 42f
mié 04/27 11:04 2.5ft 8s 18 22 mph 1010.7mb 43f 44f
10:04 2.5ft 8s 9 11 mph 1009.5mb 43f 44f
9:04 2.5ft 4s 9 13 mph 1008.6mb 43f 44f
8:04 2.5ft 8s 18 20 mph 1007.7mb 43f 44f
7:04 2.5ft 4s 18 22 mph 1007.4mb 44f 44f
6:04 2ft 4s 20 25 mph 1007mb 44f 45f
5:04 2.5ft 4s 20 22 mph 1007.1mb 44f 44f
4:04 2ft 4s 20 25 mph 1007.2mb 44f 44f
3:04 2ft 3s 20 22 mph 1007.8mb 44f 43f
2:04 2.5ft 8s 20 22 mph 1008.3mb 44f 43f
1:04 2ft 8s 18 20 mph 1008.5mb 44f 42f
12:04 2ft 8s 13 16 mph 1009.3mb 44f 43f
11:04 1.6ft 8s 9 13 mph 1009.7mb 44f 44f
10:04 1.3ft 8s 9
mph
1010.2mb 43f 42f
9:04  -   -  11 13 mph 1010.4mb 43f 41f
8:04 1.3ft 11s 11 13 mph 1010mb 43f 40f
7:04 1ft 11s 7
mph
1009.6mb 43f 35f
6:04 1ft 11s 7
mph
1009.6mb 43f 35f
5:04 1.3ft 11s 9 11 mph 1009.3mb 43f 33f
4:04 1ft 11s 9 11 mph 1008.5mb 43f 35f
3:04 1ft 11s 11 13 mph 1008.2mb 43f 35f
2:04 1ft 11s 13 16 mph 1008.1mb 43f 36f
1:04 1ft 11s 13 16 mph 1008.5mb 43f 37f
12:04 0.7ft  -  13 16 mph 1008.5mb 43f 36f
mar 04/26 11:04 0.7ft  -  13 16 mph 1008.5mb 43f 36f
10:04 1ft 8s 11 13 mph 1008.4mb 43f 36f
9:04 0.7ft  -  11 16 mph 1008.3mb 43f 37f
8:04 0.7ft  -  11 13 mph 1008mb 43f 37f
7:04 0.7ft  -  4 7 mph 1008mb 43f 37f
6:04 0.7ft  -  4 7 mph 1007.8mb 43f 38f
5:04 0.7ft  -  7 11 mph 1007.6mb 43f 36f
4:04 1ft 2s 9 11 mph 1007.5mb 43f 34f
3:04 0.7ft  -  11 13 mph 1008.1mb 43f 33f
2:04 0.7ft  -  4 7 mph 1008.9mb 43f 33f
1:04 0.7ft  -  9 11 mph 1009.2mb 43f 33f
12:04 0.7ft  -  9
mph
1009.4mb 44f 33f
11:04 1ft 2s 9 13 mph 1010.5mb 43f 34f
10:04 0.7ft  -  9 11 mph 1011mb 43f 38f
9:04 0.7ft  -  4 7 mph 1012mb 43f 38f
8:04 1ft 2s 11 13 mph 1011.9mb 43f 38f
7:04 1ft 2s 16 18 mph 1012.1mb 43f 39f
6:04 1ft 2s 11 13 mph 1012.6mb 43f 39f
5:04 0.7ft  -  11 13 mph 1012.7mb 43f 40f
4:04 1ft 2s 11 13 mph 1013.2mb 44f 41f
3:04 1.3ft 3s 11 13 mph 1012.9mb 44f 42f
2:04 1.3ft 3s 13 18 mph 1012.9mb 44f 42f
1:04 1.6ft 3s 13 16 mph 1013mb 45f 43f
12:04 1.6ft 3s 13 16 mph 1013.2mb 44f 45f
lun 04/25 11:04 1.6ft 5s 16 20 mph 1013.1mb 44f 46f
10:04 1.6ft 11s 13 18 mph 1012.7mb 45f 48f
9:04 1ft 4s 7 9 mph 1012.2mb 45f 48f
8:04 1ft 5s 4 7 mph 1011.6mb 46f 47f
7:04 1.3ft 4s 16 18 mph 1011.1mb 45f 48f
6:04 1.3ft 4s 16 18 mph 1010.8mb 46f 48f
5:04 1.6ft 3s 20 25 mph 1010.7mb 46f 47f
4:04 1.6ft 4s 18 22 mph 1010.7mb 44f 47f
3:04 1.6ft 4s 13 18 mph 1011.1mb 47f 48f
2:04 1.3ft 4s 9 11 mph 1011.9mb 46f 46f
1:04 0.7ft  -  11 16 mph 1012.4mb 46f 45f
12:04 0.7ft  -  11 13 mph 1013.4mb 47f 44f
11:04 1ft 3s 11 13 mph 1014.4mb 46f 44f
10:04 0.7ft  -  4 7 mph 1015.2mb 46f 45f
9:04 1ft 2s 11 13 mph 1015.7mb 45f 44f
8:04 0.7ft  -  9
mph
1015.7mb 45f 44f
7:04 0.7ft  -  11 13 mph 1015.6mb 44f 42f